Location: Béaulencourt
(50.0796°N, 2.8795°E)
Time: 06:07:54
(UTC+00:00)

Cosmos 676 Rocket - Pass Details

Date: 20 January 2026
Orbit: 750 x 779 km, 74.0° (Epoch: 18 February)

Event Time Altitude Azimuth Distance (km) Brightness Sun altitude
Rises 06:50:53 0° 205° (SSW) 3,191 7.2 -7.4°
Reaches altitude 10° 06:53:15 10° 207° (SSW) 2,268 6.4 -7.1°
Maximum altitude 06:58:23 80° 294° (WNW) 769 3.9 -6.3°
Drops below altitude 10° 07:03:34 10° 22° (NNE) 2,283 6.4 -5.6°
Sets 07:05:57 0° 24° (NNE) 3,213 7.2 -5.2°
